Skip Navigation Links weather.gov 
NOAA logo-Select to go to the NOAA homepage NDBC Title GraphicClick to go to NDBC home page   Select to go to the NWS homepage
Home About Us Contact Us
 
 
    
    Station List

 Data Access
    Mobile Access
    Classic Maps
         Recent
         DART®
    Obs Search
    Ship Obs Report
    BuoyCAMs
    TAO
    DODS
    OceanSITES
    HF Radar
    OSMC
    Dial-A-Buoy
    RSS Feeds Image indicating link to RSS feed access page
    Web Widget
    Web Data Guide
    Maintenance Schedule
    Station Status Report

 Program Info
    TAO
    DART®
    IOOS®

 Publications
    NDBC PEA
    NDBC FONSI
    NDBC DQC Handbook

 Visitor Information
 
USA.gov is the U.S. government's official web portal to all federal, state and local government web resources and services.

Hurricane Symbol Storm Special! View the latest observations near Atlantic Tropical Storm Beta, Atlantic Tropical Storm Wilfred and Atlantic Hurricane Teddy.

Station COVM2 - 8577018 - Cove Point LNG Pier, MD Image indicating link to RSS feed of recent meteorological observations for station COVM2

Owned and maintained by NOAA's National Ocean Service
C-MAN Station
38.402 N 76.385 W (38°24'8" N 76°23'7" W)

Site elevation: 0 m above mean sea level

Latest NWS Marine Forecast

Search And Rescue (SAR) Data

Meteorological Observations from Nearby Stations and Ships Image indicating link to RSS feed of recent meteorological observations near station COVM2

Large icon indicates selected station.
yellow diamond Stations with recent data
red diamond Stations with no data in last 8 hours
     (24 hours for tsunami stations)


Conditions at COVM2 as of
(2:30 am EDT)
0630 GMT on 09/19/2020:
     

Click on the graph icon in the table below to see a time series plot of the last five days of that observation.

5-day plot - Wind Direction Wind Direction (WDIR): N ( 10 deg true )
5-day plot - Wind Speed Wind Speed (WSPD): 5 kts
5-day plot - Wind Gust Wind Gust (GST): 20 kts
5-day plot - Atmospheric Pressure Atmospheric Pressure (PRES): 30.20 in
5-day plot - Wind Speed at 10 Meters Wind Speed at 10 meters (WSPD10M): 6 kts
5-day plot - Wind Speed at 10 Meters Wind Speed at 20 meters (WSPD20M): 6 kts
5-day plot - Wind Speed, Wind Gust and Atmospheric Pressure Combined plot of Wind Speed, Gust, and Air Pressure
NOS Water Level Observation Network Water Level
Previous observations
5-day plot - Wind Direction 5-day plot - Wind Speed 5-day plot - Wind Gust 5-day plot - Wave Height 5-day plot - Dominant Wave Period 5-day plot - Average Period 5-day plot - Mean Wave Direction 5-day plot - Atmospheric Pressure 5-day plot - Pressure Tendency 5-day plot - Air Temperature 5-day plot - Water Temperature 5-day plot - Dew Point 5-day plot - Salinity 5-day plot - Visibility 5-day plot - Tide (above MLLW)
MM DD TIME
(EDT)
WDIR WSPD
kts
GST
kts
WVHT
ft
DPD
sec
APD
sec
MWD PRES
in
PTDY
in
ATMP
°F
WTMP
°F
DEWP
°F
SAL
psu
VIS
nmi
TIDE
ft
0919 2:24 am N 8 23----30.20-------
0919 2:18 amNNW 11 19----30.19-------
0919 2:12 amNNW 11 20----30.19-------
0919 2:06 am N 7 26----30.19-------
0919 2:00 amNNE 11 31----30.19+0.07------
0919 1:54 amNNE 15 28----30.19-------
0919 1:48 amNNE 16 28----30.19-------
0919 1:42 am NE 11 25----30.18-------
0919 1:36 amNNE 6 28----30.18-------
0919 1:30 amNNE 15 28----30.17-------
0919 1:24 am NE 8 25----30.17-------
0919 1:18 amNNW 4 24----30.16-------
0919 1:12 am N 6 20----30.16-------
0919 1:06 amNNE 5 21----30.16-------
0919 1:00 amNNE 10 26----30.16+0.07------
091912:54 am N 7 19----30.16-------
091912:48 amNNW 7 15----30.15-------
091912:42 amNNW 5 13----30.15-------
091912:36 amNNW 6 19----30.15-------
091912:30 am N 6 24----30.15-------
091912:24 am N 6 16----30.15-------
091912:18 am-------30.15-------
091912:12 am-------30.14-------
091912:06 am-------30.14-------
091912:00 am NE 16 29----30.14-------
091811:54 pm NE 8 27----30.14-------
091811:48 pmNNE 6 28----30.14-------
091811:42 pmNNE 15 32----30.13-------
091811:36 pmNNE 18 29----30.13-------
091811:30 pmNNE 17 32------------
091811:24 pmNNE 14 31------------
091811:18 pm NE 8 30----30.12-------
091811:12 pmNNE 18 28----30.12-------
091811:06 pmNNE 14 29----30.11-------
091811:00 pmNNE 21 32----30.11+0.08------
091810:54 pmNNE 9 26----30.11-------
091810:48 pmNNE 10 29----30.11-------
091810:42 pmNNE 16 30----30.11-------
091810:36 pm N 6 25----30.10-------
091810:30 pmNNE 15 27------------
091810:24 pm NE 16 30------------
091810:18 pm NE 14 31----30.09-------
091810:12 pmNNE 22 28----30.09-------
091810:06 pmNNE 18 28----30.09-------
091810:00 pmNNE 16 21----30.09+0.08------
0918 9:54 pmNNE 7 21----30.09-------
0918 9:48 pmNNE 11 20------------
0918 9:42 pmNNW 4 13------------
0918 9:36 pm NW 6 11------------
0918 9:30 pm N 2 11------------
0918 9:24 pm N 6 12------------
0918 9:18 pmNNE 7 21------------
0918 9:12 pmNNE 10 20------------
0918 9:06 pmNNE 8 18------------
0918 9:00 pmNNE 12 21------------
0918 8:54 pmNNE 14 22------------
0918 8:48 pm NE 11 21----30.06-------
0918 8:42 pmNNE 14 22----30.06-------
0918 8:36 pmNNE 15 22----30.06-------
0918 8:30 pmNNE 13 19----30.06-------
0918 8:24 pmNNE 15 20----30.05-------
0918 8:18 pmNNE 8 17----30.05-------
0918 8:12 pmNNE 11 18----30.05-------
0918 8:06 pmNNE 8 15----30.04-------
0918 8:00 pmNNE 10 16----30.04+0.06------
0918 7:54 pmNNE 10 16----30.03-------
0918 7:48 pmNNE 9 19----30.03-------
0918 7:42 pmNNE 7 14----30.03-------
0918 7:36 pmNNE 9 16----30.03-------
0918 7:30 pmNNE 9 17----30.02-------
0918 7:24 pmNNE 7 14----30.02-------
0918 7:18 pm NE 7 15----30.02-------
0918 7:12 pmNNE 12 17----30.02-------
0918 7:06 pm NE 10 17----30.01-------
0918 7:00 pmNNE 10 16----30.01+0.05------
0918 6:54 pmNNE 12 16----30.01-------
0918 6:48 pmNNE 12 14----30.01-------
0918 6:42 pmNNE 6 14----30.01-------
0918 6:36 pm N 4 11----30.01-------
0918 6:30 pm N 3 11----30.00-------
0918 6:24 pmNNW 5 12----30.00-------
0918 6:18 pmNNW 3 11----30.00-------
0918 6:12 pm N 4 13----30.00-------
0918 6:06 pmNNW 4 10----30.00-------
0918 6:00 pm N 4 13----30.00+0.04------
0918 5:54 pm N 4 10----29.99-------
0918 5:48 pmNNW 4 13----29.99-------
0918 5:42 pmNNW 5 12----29.99-------
0918 5:36 pmNNW 5 13----29.99-------
0918 5:30 pm N 5 12----29.98-------
0918 5:24 pm NW 6 14----29.98-------
0918 5:18 pmNNW 4 13----29.98-------
0918 5:12 pmNNW 9 14----29.98-------
0918 5:06 pmNNW 9 15----29.98-------
0918 5:00 pmNNW 6 14----29.98+0.02------
0918 4:54 pmNNW 12 17----29.98-------
0918 4:48 pmNNW 12 18----29.98-------
0918 4:42 pmNNW 5 17----29.97-------
0918 4:36 pmNNW 10 15----29.97-------
0918 4:30 pmNNW 12 18----29.97-------
0918 4:24 pmNNW 12 21----29.97-------
0918 4:18 pmNNW 13 21----29.97-------
0918 4:12 pmNNW 16 20----29.97-------
0918 4:06 pmNNW 18 24----29.97-------
0918 4:00 pmNNW 11 19----29.97+0.01------
0918 3:54 pmNNW 15 23----29.97-------
0918 3:48 pmNNW 19 25----29.97-------
0918 3:42 pmNNW 22 28----29.97-------
0918 3:36 pmNNW 19 26----29.97-------
0918 3:30 pmNNW 16 25------------
0918 3:24 pmNNW 15 26------------
0918 3:18 pmNNW 18 25----29.96-------
0918 3:12 pmNNW 19 25----29.96-------
0918 3:06 pmNNW 17 29----29.96-------
0918 3:00 pmNNW 22 29----29.96+0.01------
0918 2:54 pmNNW 24 27----29.96-------
0918 2:48 pmNNW 22 26----29.96-------
0918 2:42 pmNNW 23 29----29.96-------
0918 2:36 pmNNW 20 26----29.96-------
0918 2:30 pmNNW 22 27----29.96-------
0918 2:24 pmNNW 20 25----29.96-------
0918 2:18 pmNNW 22 30----29.96-------
0918 2:12 pmNNW 23 28----29.96-------
0918 2:06 pmNNW 18 24----29.96-------
0918 2:00 pmNNW 20 29----29.96+0.02------
0918 1:54 pmNNW 21 25----29.96-------
0918 1:48 pmNNW 19 25----29.96-------
0918 1:42 pmNNW 18 25----29.96-------
0918 1:36 pmNNW 14 22----29.96-------
0918 1:30 pmNNW 10 17----29.96-------
0918 1:24 pmNNW 7 14----29.96-------
0918 1:18 pm NW 5 13----29.95-------
0918 1:12 pmNNW 11 18----29.96-------
0918 1:06 pmNNW 7 16----29.96-------
0918 1:00 pmNNW 7 15----29.96+0.03------
091812:54 pmNNW 9 16----29.96-------
091812:48 pmNNW 6 15----29.95-------
091812:42 pmNNW 7 13----29.95-------
091812:36 pmNNW 9 16----29.95-------
091812:30 pmNNW 11 18----29.95-------
091812:24 pmNNW 11 20----29.95-------
091812:18 pmNNW 13 19----29.95-------
091812:12 pmNNW 12 19----29.95-------
091812:06 pmNNW 14 20----29.95-------
091812:00 pmNNW 9 20----29.95+0.05------
091811:54 amNNW 16 24----29.95-------
091811:48 am N 20 24----29.95-------
091811:42 am N 19 23----29.95-------
091811:36 am N 15 23----29.95-------
091811:30 am N 17 22----29.95-------
091811:24 am N 18 22----29.95-------
091811:18 am N 16 21----29.95-------
091811:12 am N 18 22----29.94-------
091811:06 am N 17 20----29.94-------
091811:00 am N 16 20----29.93+0.04------
091810:54 am N 18 20----29.93-------
091810:48 am N 15 20----29.93-------
091810:42 am N 15 19----29.93-------
091810:36 am N 17 20----29.93-------
091810:30 am N 15 19----29.93-------
091810:24 am N 14 19----29.93-------
091810:18 am N 16 20------------
091810:12 am N 19 22------------
091810:06 am N 14 20------------
091810:00 am N 18 21----29.92+0.04------
0918 9:54 amNNW 12 19----29.92-------
0918 9:48 amWNW 3 11----29.91-------
0918 9:42 am NW 3 11----29.91-------
0918 9:36 am NW 3 7----29.91-------
0918 9:30 am N 2 6----29.90-------
0918 9:24 am NW 2 12----29.90-------
0918 9:18 am NW 4 18----29.90-------
0918 9:12 amNNW 9 15----29.90-------
0918 9:06 amNNW 10 17----29.90-------
0918 9:00 am-------29.90+0.03------
0918 8:54 am-------29.89-------
0918 8:48 amNNW 10 16----29.89-------
0918 8:42 am NW 4 10----29.89-------
0918 8:36 am NW 6 9----29.89-------
0918 8:30 amNNW 3 12----29.89-------
0918 8:24 amNNW 6 14----29.89-------
0918 8:18 am NW 7 11----29.89-------
0918 8:12 amNNW 5 11----29.89-------
0918 8:06 am N 5 12----29.89-------
0918 8:00 am-------29.89+0.02------
0918 7:54 am-------29.89-------
0918 7:48 amNNE 2 6----29.89-------
0918 7:42 amSSE 2 7----29.89-------
0918 7:36 amNNE 2 13----29.88-------
0918 7:30 am NE 4 11----29.88-------
0918 7:24 amNNW 3 6----29.88-------
0918 7:18 am N 4 13----29.88-------
0918 7:12 amNNE 3 7----29.88-------
0918 7:06 am N 2 10----29.88-------
0918 7:00 amNNW 2 9----29.88+0.00------
0918 6:54 am NE 4 13----29.88-------
0918 6:48 amNNE 5 12----29.88-------
0918 6:42 amNNE 4 12----29.88-------
0918 6:36 amNNE 6 13----29.88-------
0918 6:30 amNNE 8 14----29.88-------
0918 6:24 amNNE 8 13----29.88-------
0918 6:18 am NE 10 13----29.88-------
0918 6:12 am NE 11 14----29.88-------
0918 6:06 amNNE 10 14----29.88-------
0918 6:00 am NE 10 14----29.87-0.03------
0918 5:54 amNNE 12 13----29.87-------
0918 5:48 amNNE 9 12------------
0918 5:42 amNNE 8 13------------
0918 5:36 am NE 4 12------------
0918 5:30 amNNE 9 15----29.87-------
0918 5:24 amNNE 9 14----29.87-------
0918 5:18 amNNE 11 14----29.87-------
0918 5:12 amNNE 10 16----29.87-------
0918 5:06 am NE 12 14----29.87-------
0918 5:00 amNNE 10 14----29.87-0.03------
0918 4:54 amNNE 10 15----29.87-------
0918 4:48 am NE 11 14------------
0918 4:42 amNNE 9 14----29.88-------
0918 4:36 am NE 12 14----29.87-------
0918 4:30 am-------29.87-------
0918 4:24 am-------29.87-------
0918 4:18 am NE 11 15----29.87-------
0918 4:12 am NE 10 14----29.88-------
0918 4:06 am NE 10 14----29.88-------
0918 4:00 am NE 11 13----29.88-0.04------
0918 3:54 amENE 11 13----29.89-------
0918 3:48 am NE 10 12----29.89-------
0918 3:42 am NE 11 14----29.88-------
0918 3:36 amENE 9 12----29.88-------
0918 3:30 amENE 10 14----29.89-------
0918 3:24 amENE 9 13----29.88-------
0918 3:18 amENE 10 12----29.88-------
0918 3:12 amENE 10 11----29.89-------
0918 3:06 amENE 11 14----29.89-------
0918 3:00 amENE 8 10----29.90-0.04------
0918 2:54 am E 9 11----29.90-------

Description of Measurements

Links which are specific to this station are listed below:

Real Time Data in tabular form for the last forty-five days.

Historical Data & Climatic Summaries for quality controlled data for the current month, previous months, and previous years.